Find Starlink 38190

NORAD ID: 100219 Int'l Des: 2026-177 Owner: SPXS Country: US Constellation: starlink operational

当前视图

正在加载3D地球...

About Starlink 38190

Starlink 38190 (NORAD 100219) is a starlink constellation satellite launched Aug 4, 2026 by SPXS of US. with a mass of 575.00 kg.

即将过境

Passes for default location (London). Set your location on the main map for personalized predictions.

高度历史

Loading altitude history...

两行轨道根数

1 A0219U 26177G 26235.63356031 .00070851 00000-0 47176-3 0 9999
2 A0219 97.2844 285.5161 0000863 87.9174 272.2190 15.75199684 3000
Epoch: Aug 23, 2026 • Age: 10 hours

当前状态

高度 356.8 km
远地点 / 近地点 N/A
速度 7.70 km/s
星下点 81.16°N, 177.08°E
发射日期 Aug 4, 2026
运行时间 19 days
类型 internet

技术详情

分类 Payload
质量 575.00 kg
干质量 530.00 kg
总质量 575.00 kg
长度 0.30 m
直径 4.10 m
跨度 29.00 m
形状 Box + pan
制造商 SPXS
平台类型 Starlink V2MO
阶段状态 In Orbit
所有者/国家 SPXS/US

Most Searched